Regional Weather Roundup
Issued by NWS

Home | Current Version | Previous Version | Graphics & Text | Print | Product List | Glossary On
Versions: 1 2 3 4 5 6 7 8 9 10 11 12 13 14 15 16 17 18 19 20 21 22 23 24 25 26 27 28 29 30 31 32 33 34 35 36 37 38 39 40 41 42 43 44 45 46 47 48 49 50
000
ASUS43 KMKX 020021
RWRWI

WISCONSIN REGIONAL WEATHER ROUNDUP
NATIONAL WEATHER SERVICE MILWAUKEE/SULLIVAN WI
700 PM CDT MON SEP 01 2014

NOTE: "FAIR" INDICATES FEW OR NO CLOUDS BELOW 12,000 FEET WITH NO
SIGNIFICANT WEATHER AND/OR OBSTRUCTIONS TO VISIBILITY.

WIZ001-002-006>008-014>016-023>028-020100-
NORTHWEST WISCONSIN

CITY           SKY/WX    TMP DP  RH WIND       PRES   REMARKS
SUPERIOR ARPT  CLEAR     69  54  59 W6        29.70S
6HR MIN TEMP:  69; 6HR MAX TEMP:  74;

ASHLAND        PTCLDY    68  56  65 W7        29.70R
6HR MIN TEMP:  68; 6HR MAX TEMP:  72;

HAYWARD        CLEAR     68  56  65 W6        29.73S
6HR MIN TEMP:  67; 6HR MAX TEMP:  72;

SIREN          CLEAR     70  55  59 W3        29.74S
6HR MIN TEMP:  70; 6HR MAX TEMP:  74;

RICE LAKE      CLEAR     68  55  62 W3        29.76S
6HR MIN TEMP:  69; 6HR MAX TEMP:  74;

LADYSMITH      CLEAR     69  53  57 W12       29.76S
6HR MIN TEMP:  69; 6HR MAX TEMP:  74;

EAU CLAIRE     PTCLDY    71  57  61 W6        29.75R
6HR MIN TEMP:  71; 6HR MAX TEMP:  77;

MENOMONIE      PTCLDY    74  54  48 W5        29.76S
6HR MIN TEMP:  73; 6HR MAX TEMP:  78;

NEW RICHMOND   CLEAR     70  57  64 W5        29.77R
6HR MIN TEMP:  70; 6HR MAX TEMP:  75;

OSCEOLA        CLEAR     71  58  61 W5        29.78R
6HR MIN TEMP:  69; 6HR MAX TEMP:  75;

$$

WIZ003>005-009-010-017-018-020100-
NORTH CENTRAL WISCONSIN

CITY           SKY/WX    TMP DP  RH WIND       PRES   REMARKS
WOODRUFF       CLEAR     67  57  71 W3        29.73R
6HR MIN TEMP:  64; 6HR MAX TEMP:  72;

RHINELANDER    CLEAR     67  54  63 W8        29.74R
6HR MIN TEMP:  66; 6HR MAX TEMP:  74;

EAGLE RIVER    MOCLDY    66  54  63 W6        29.72R
LAND O LAKES   PTCLDY    66  57  73 W5        29.72R
6HR MIN TEMP:  63; 6HR MAX TEMP:  70; 6HR PCP:  0.07;

PHILLIPS       CLOUDY    66  57  72 W3        29.73S
6HR MIN TEMP:  66; 6HR MAX TEMP:  72;

TOMAHAWK       CLEAR     66  56  68 CALM      29.74R
6HR MIN TEMP:  66; 6HR MAX TEMP:  72;

MEDFORD        CLEAR     66  55  67 W9        29.76R
6HR MIN TEMP:  66; 6HR MAX TEMP:  73;

MERRILL        CLEAR     68  57  69 W7        29.73S
6HR MIN TEMP:  66; 6HR MAX TEMP:  74; 6HR PCP:  0.02;

$$

WIZ029-030-035-036-043>047-020100-
CENTRAL WISCONSIN

CITY           SKY/WX    TMP DP  RH WIND       PRES   REMARKS
WAUSAU         CLEAR     70  58  65 W10       29.73R
6HR MIN TEMP:  68; 6HR MAX TEMP:  75; 6HR PCP:  0.01;

MOSINEE        CLEAR     68  59  73 W7        29.75R
MARSHFIELD     CLEAR     70  58  65 W8        29.75R
6HR MIN TEMP:  70; 6HR MAX TEMP:  76; 6HR PCP:  0.01;

STEVENS POINT  CLEAR     70  58  66 W5        29.75R
6HR MIN TEMP:  67; 6HR MAX TEMP:  73;

WAUPACA        CLEAR     74  60  62 W7        29.74R
6HR MIN TEMP:  70; 6HR MAX TEMP:  78;

WAUTOMA        LGT RAIN  72  66  81 W7        29.76R
6HR MIN TEMP:  69; 6HR MAX TEMP:  78; 6HR PCP: TRACE;

WISC RAPIDS    CLEAR     72  60  66 W8        29.76R
6HR MIN TEMP:  69; 6HR MAX TEMP:  76; 6HR PCP:  0.01;

CAMP DOUGLAS   CLEAR     71  65  82 W8        29.77R
6HR MIN TEMP:  66; 6HR MAX TEMP:  78;

$$

WIZ011>013-019>022-031-037>040-048>050-020100-
NORTHEAST WISCONSIN

CITY           SKY/WX    TMP DP  RH WIND       PRES   REMARKS
ANTIGO         CLEAR     66  56  69 W12       29.74R
6HR MIN TEMP:  65; 6HR MAX TEMP:  73; 6HR PCP:  0.02;

STURGEON BAY   PTCLDY    72  63  73 W7        29.71R
6HR MIN TEMP:  68; 6HR MAX TEMP:  73;

GREEN BAY      CLEAR     73  65  75 W7        29.70R
6HR MIN TEMP:  70; 6HR MAX TEMP:  76; 6HR PCP: TRACE;

MANITOWOC      MOCLDY    73  65  75 W10       29.71R
6HR MIN TEMP:  73; 6HR MAX TEMP:  76; 6HR PCP: TRACE;

APPLETON       PTCLDY    72  63  73 SW8       29.72R
CLINTONVILLE   PTCLDY    72  61  68 W7        29.72R
OSHKOSH        PTCLDY    71  65  81 W7        29.73R
6HR MIN TEMP:  70; 6HR MAX TEMP:  76; 6HR PCP: TRACE;

$$

WIZ032>034-041-042-053>061-020100-
SOUTHWEST WISCONSIN

CITY           SKY/WX    TMP DP  RH WIND       PRES   REMARKS
LA CROSSE      CLEAR     76  59  55 W8        29.77R
6HR MIN TEMP:  67; 6HR MAX TEMP:  80; 6HR PCP:  0.03;

SPARTA         CLEAR     73  60  63 W5        29.78R
6HR MIN TEMP:  66; 6HR MAX TEMP:  77; 6HR PCP:  0.21;

VIROQUA        FAIR      71  60  69 W7        29.80S
6HR MIN TEMP:  71; 6HR MAX TEMP:  76;

BOSCOBEL       CLEAR     76  63  64 W3        29.78S
6HR MIN TEMP:  73; 6HR MAX TEMP:  81; 6HR PCP:  0.08;

PRAIRIE DU CHI CLEAR     75  57  53 W7        29.79S
6HR MIN TEMP:  75; 6HR MAX TEMP:  80;

PLATTEVILLE    FAIR      73  64  73 CALM      29.81S
6HR MIN TEMP:  72; 6HR MAX TEMP:  79;

$$

WIZ056-057-062-063-064-067-068-020100-
SOUTH CENTRAL WISCONSIN

CITY           SKY/WX    TMP DP  RH WIND       PRES   REMARKS
BARABOO/DELLS  CLEAR     72  62  70 W3        29.77S
6HR MIN TEMP:  69; 6HR MAX TEMP:  78;

LONE ROCK      CLEAR     77  60  55 W9        29.78R
6HR MIN TEMP:  76; 6HR MAX TEMP:  83;

WATERTOWN      PTCLDY    71  64  78 NW6       29.78R
6HR MIN TEMP:  71; 6HR MAX TEMP:  79;

MADISON        MOCLDY    73  64  73 VRB3      29.78R
6HR MIN TEMP:  70; 6HR MAX TEMP:  78; 6HR PCP:  0.07;

MIDDLETON      FAIR      73  66  79 W5        29.79R
6HR MIN TEMP:  70; 6HR MAX TEMP:  79; 6HR PCP:  0.14;

MONROE         PTCLDY    72  68  88 SW6       29.80R
JANESVILLE     CLEAR     73  64  73 W12       29.78R
$$

WIZ051-052-058>065-066-070>072-020100-
SOUTHEAST WISCONSIN

CITY           SKY/WX    TMP DP  RH WIND       PRES   REMARKS
MILWAUKEE      TSTM      75  66  73 W9        29.75R
6HR MIN TEMP:  75; 6HR MAX TEMP:  82; 6HR PCP: TRACE;

WAUKESHA       PTCLDY    70  63  78 SW15G23   29.78R
MILWAUKEE/TIMM MOCLDY    77  63  61 W12G17    29.76R
RACINE         TSTM      72  63  73 W10G29    29.79R
6HR MIN TEMP:  78; 6HR MAX TEMP:  83;

BURLINGTON     LGT RAIN  73  66  79 NW13G18   29.78R
6HR MIN TEMP:  73; 6HR MAX TEMP:  80;

KENOSHA        CLOUDY    77  67  71 SW9       29.76R
6HR MIN TEMP:  77; 6HR MAX TEMP:  82;

FOND DU LAC    PTCLDY    69  61  75 MISG      29.75R
6HR MIN TEMP:  69; 6HR MAX TEMP:  76; 6HR PCP:  0.01;

SHEBOYGAN      PTCLDY    73  63  70 W9        29.73R
6HR MIN TEMP:  73; 6HR MAX TEMP:  78;

WEST BEND      MOCLDY    68  63  83 SW7       29.76R
JUNEAU         PTCLDY    69  64  83 SW7       29.78R
6HR MIN TEMP:  69; 6HR MAX TEMP:  76;

$$

LSZ147-162-020100-
LAKE SUPERIOR

STATION/POSITION TIME  TEMP    WIND        PRES    WAVE
                       AIR SEA DIR/SP/G            HT/PER
                 (UTC) (F)     (DEG/KT/KT) (MB)    (FT/S)
W MID LAKE BUOY  2350   62 57  250/ 14/ 16 1003.3R   3/ 5
DEVILS ISLAND    0000   65     250/ 14/ 17 1004.4R
PORT WING        2340   68     260/ 10/ 12 1005.4R
SAXON HARBOR     2300   73      CALM  /  4 1005.1S
$$

LMZ867-665-643>646-020100-
LAKE MICHIGAN

STATION/POSITION TIME  TEMP    WIND        PRES    WAVE
                       AIR SEA DIR/SP/G            HT/PER
                 (UTC) (F)     (DEG/KT/KT) (MB)    (FT/S)
N MID LAKE BUOY  2350   67 65  220/ 14/ 16 1004.2R   2/ 6
NORTHPORT PIER   2300   73     240/  4/ 10 1004.1R
KEWAUNEE LAKESHO 2300   75     260/  6/ 12 1004.3R
SHEBOYGAN LAKESH 0000   76 56  240/ 12/ 15 1006.7R
ATWATER BUOY     0000   72     240/ 12/ 14 1008.4R
MILWAUKEE LAKESH 0000   77     260/ 12/ 15   N/A
S MID LAKE BUOY  2350   73 70  230/  8/ 10 1007.4R   2/ 4
KENOSHA   LAKESH 0000   80     230/ 10/ 17 1007.1R
$$

TC  - TEMPERATURE IN CELSIUS
VSB - VISIBILITY IN STATUTE MILES
WCI - WIND CHILL INDEX
HX  - HEAT INDEX




USA.gov is the U.S. government's official web portal to all federal, state and local government web resources and services.